Weather History for West Plains, MO

Change the Weather History Date:

Sunday, December 2, 2012

  Actual Average Record
Temperature  
Mean Temperature 61 °F 40 °F  
Max Temperature 73 °F 50 °F 73 °F (2012)
Min Temperature 49 °F 30 °F 6 °F (1985)
Degree Days  
Heating Degree Days 4 25  
Month to date heating degree days 9 50  
Since 1 July heating degree days 953 902  
Cooling Degree Days 0 0  
Month to date cooling degree days 0 0  
Year to date cooling degree days 1739 1354  
Growing Degree Days 10 (Base 50)    
Moisture  
Dew Point 55 °F    
Average Humidity 85    
Maximum Humidity 100    
Minimum Humidity 59    
Precipitation  
Precipitation 0.00 in 0.16 in 2.81 in (1982)
Month to date precipitation 0.00 0.33  
Year to date precipitation 29.92 42.91  
Sea Level Pressure  
Sea Level Pressure 30.05 in    
Wind  
Wind Speed 7 mph (South)    
Max Wind Speed 17 mph    
Max Gust Speed 25 mph    
Visibility 6 miles    
Events Fog    
T = Trace of Precipitation, MM = Missing Value Source: NWS Daily Summary

Daily Weather History Graph

Daily Weather History Graph

Search for Another Location

Airport:

Trip Planner

Search our weather history database for the weather conditions in past years. The results will help you decide how hot, cold, wet, or windy it might be!

Date:

Astronomy

Dec. 02, 2012 Rise Set
Actual Time 7:03 AM CST 4:51 PM CST
Civil Twilight 6:34 AM CST 5:19 PM CST
Nautical Twilight 6:02 AM CST 5:51 PM CST
Astronomical Twilight 5:31 AM CST 6:23 PM CST
Moon 8:36 PM CST (12/2) 9:55 AM CST (12/2)
Length of Visible Light 10h 44m
Length of Day
9h 47m
Waning Gibbous, 85% of the Moon is Illuminated
Dec 2
Waning Gibbous
Dec 6
Last Quarter
Dec 13
New
Dec 19
First Quarter
Dec 28
Full

Hourly Weather History & Observations

Time (CST) Temp. Dew Point Humidity Pressure Visibility Wind Dir Wind Speed Gust Speed Precip Events Conditions
12:53 AM 57.0 °F 52.0 °F 83% 30.01 in 10.0 mi South 9.2 mph - N/A   Clear
1:53 AM 57.9 °F 53.1 °F 84% 30.01 in 10.0 mi South 6.9 mph - N/A   Mostly Cloudy
2:53 AM 57.0 °F 53.1 °F 87% 30.02 in 10.0 mi SSE 3.5 mph - N/A   Mostly Cloudy
3:53 AM 55.0 °F 52.0 °F 89% 30.01 in 9.0 mi South 3.5 mph - N/A   Clear
4:53 AM 55.0 °F 52.0 °F 89% 30.02 in 7.0 mi Calm Calm - N/A   Clear
5:53 AM 53.1 °F 52.0 °F 96% 30.04 in 2.0 mi Calm Calm - N/A   Partly Cloudy
5:55 AM 51.8 °F 51.8 °F 100% 30.05 in 1.0 mi Calm Calm - N/A   Mist
6:02 AM 48.2 °F 48.2 °F 100% 30.05 in 0.2 mi Calm Calm - N/A Fog Fog
6:22 AM 53.6 °F 51.8 °F 94% 30.05 in 1.5 mi SSE 4.6 mph - N/A   Mostly Cloudy
6:30 AM 53.6 °F 51.8 °F 94% 30.06 in 2.0 mi SSE 3.5 mph - N/A   Mostly Cloudy
6:34 AM 53.6 °F 51.8 °F 94% 30.06 in 1.0 mi SE 3.5 mph - N/A   Mist
6:41 AM 53.6 °F 51.8 °F 94% 30.06 in 0.8 mi SE 3.5 mph - N/A   Mist
6:44 AM 53.6 °F 51.8 °F 94% 30.07 in 1.0 mi SE 3.5 mph - N/A   Mostly Cloudy
6:51 AM 53.6 °F 53.6 °F 100% 30.07 in 1.2 mi SSE 3.5 mph - N/A   Mostly Cloudy
6:53 AM 54.0 °F 52.0 °F 93% 30.05 in 1.0 mi SSE 4.6 mph - N/A   Overcast
7:00 AM 53.6 °F 51.8 °F 94% 30.07 in 0.2 mi SSE 3.5 mph - N/A Fog Fog
7:07 AM 53.6 °F 51.8 °F 94% 30.07 in 0.2 mi SSE 3.5 mph - N/A Fog Fog
7:44 AM 53.6 °F 53.6 °F 100% 30.09 in 0.2 mi South 3.5 mph - N/A Fog Fog
7:53 AM 54.0 °F 53.1 °F 97% 30.08 in 0.2 mi South 4.6 mph - N/A Fog Fog
8:13 AM 55.4 °F 53.6 °F 94% 30.09 in 0.2 mi South 6.9 mph - N/A Fog Fog
8:31 AM 57.2 °F 55.4 °F 94% 30.09 in 1.2 mi South 4.6 mph - N/A   Mostly Cloudy
8:37 AM 57.2 °F 55.4 °F 94% 30.09 in 2.5 mi South 5.8 mph - N/A   Scattered Clouds
8:44 AM 57.2 °F 57.2 °F 100% 30.09 in 4.0 mi South 6.9 mph - N/A   Scattered Clouds
8:53 AM 59.0 °F 57.0 °F 93% 30.08 in 4.0 mi South 6.9 mph - N/A   Partly Cloudy
9:53 AM 66.0 °F 60.1 °F 81% 30.08 in 8.0 mi SSW 9.2 mph - N/A   Clear
10:44 AM 68.0 °F 60.8 °F 78% 30.10 in 10.0 mi SSW 13.8 mph - N/A   Mostly Cloudy
10:53 AM 68.0 °F 60.1 °F 76% 30.07 in 10.0 mi SSW 11.5 mph - N/A   Mostly Cloudy
11:17 AM 68.0 °F 60.8 °F 78% 30.09 in 10.0 mi SSW 13.8 mph - N/A   Overcast
11:53 AM 70.0 °F 60.1 °F 71% 30.05 in 10.0 mi SSW 10.4 mph - N/A   Mostly Cloudy
12:42 PM 69.8 °F 59.0 °F 68% 30.05 in 10.0 mi South 10.4 mph - N/A   Overcast
12:53 PM 70.0 °F 59.0 °F 68% 30.03 in 10.0 mi SSW 9.2 mph - N/A   Overcast
1:53 PM 73.0 °F 57.9 °F 59% 30.00 in 10.0 mi SSW 9.2 mph 19.6 mph N/A   Scattered Clouds
2:53 PM 72.0 °F 57.9 °F 61% 30.00 in 10.0 mi South 8.1 mph - N/A   Scattered Clouds
3:53 PM 71.1 °F 55.9 °F 59% 30.01 in 10.0 mi South 6.9 mph - N/A   Clear
4:53 PM 69.1 °F 55.9 °F 63% 30.01 in 10.0 mi South 6.9 mph - N/A   Partly Cloudy
5:53 PM 66.9 °F 55.9 °F 68% 30.02 in 10.0 mi South 5.8 mph - N/A   Scattered Clouds
6:53 PM 66.0 °F 57.0 °F 73% 30.03 in 10.0 mi South 8.1 mph - N/A   Scattered Clouds
7:53 PM 64.9 °F 57.0 °F 75% 30.03 in 10.0 mi South 9.2 mph - N/A   Clear
8:53 PM 64.0 °F 57.9 °F 80% 30.04 in 10.0 mi South 10.4 mph - N/A   Clear
9:53 PM 63.0 °F 57.9 °F 84% 30.04 in 10.0 mi South 10.4 mph - N/A   Clear
10:53 PM 62.1 °F 57.9 °F 86% 30.04 in 9.0 mi South 10.4 mph - N/A   Clear
11:53 PM 60.1 °F 57.9 °F 93% 30.04 in 6.0 mi South 6.9 mph - N/A   Clear